TimePDT,TemperatureF,Dew PointF,Humidity,Sea Level PressureIn,VisibilityMPH,Wind Direction,Wind SpeedMPH,Gust SpeedMPH,PrecipitationIn,Events,Conditions,WindDirDegrees,DateUTC
12:00 AM,43.7,34.0,69,30.00,-9999.0,Calm,Calm,-,N/A,,Unknown,0,2012-10-10 07:00:00
1:00 AM,41.4,33.4,73,30.00,-9999.0,Calm,Calm,-,N/A,,Unknown,0,2012-10-10 08:00:00
2:00 AM,38.5,32.0,78,29.99,-9999.0,Calm,Calm,-,N/A,,Unknown,0,2012-10-10 09:00:00
3:00 AM,36.1,31.1,82,29.99,-9999.0,Calm,Calm,-,N/A,,Unknown,0,2012-10-10 10:00:00
4:00 AM,36.0,32.0,86,29.99,-9999.0,Calm,Calm,-,N/A,,Unknown,0,2012-10-10 11:00:00
5:00 AM,34,30,79,30.01,,Calm,Calm,,,,,,2012-10-10 12:00:00
5:00 AM,33.6,29.8,86,30.01,-9999.0,Calm,Calm,-,N/A,,Unknown,0,2012-10-10 12:00:00
6:00 AM,33.1,30.6,90,30.01,-9999.0,Calm,Calm,-,N/A,,Unknown,0,2012-10-10 13:00:00
7:00 AM,31.6,30.6,96,30.02,-9999.0,Calm,Calm,-,N/A,,Unknown,0,2012-10-10 14:00:00
8:00 AM,34.0,31.5,90,30.04,-9999.0,Calm,Calm,-,N/A,,Unknown,0,2012-10-10 15:00:00
9:00 AM,39.9,31.8,73,30.04,-9999.0,Calm,Calm,-,N/A,,Unknown,0,2012-10-10 16:00:00
10:00 AM,46.0,33.8,62,30.02,-9999.0,Calm,Calm,-,N/A,,Unknown,0,2012-10-10 17:00:00
11:00 AM,52,35,39,30.00,,Calm,Calm,,,,,,2012-10-10 18:00:00
11:00 AM,51.6,34.5,52,30.00,-9999.0,Calm,Calm,-,N/A,,Unknown,0,2012-10-10 18:00:00
12:00 PM,58.3,35.2,42,29.97,-9999.0,Calm,Calm,-,N/A,,Unknown,0,2012-10-10 19:00:00
1:00 PM,64.9,35.8,34,29.93,-9999.0,Calm,Calm,-,N/A,,Unknown,0,2012-10-10 20:00:00
2:00 PM,69.8,37.2,30,29.90,-9999.0,SE,2.3,-,N/A,,Unknown,130,2012-10-10 21:00:00
3:00 PM,71.2,36.0,27,29.89,-9999.0,West,4.6,-,N/A,,Unknown,280,2012-10-10 22:00:00
4:00 PM,70.5,34.9,27,29.89,-9999.0,West,6.9,-,N/A,,Unknown,280,2012-10-10 23:00:00
5:00 PM,70,34,16,29.89,,West,5.8,,,,,270,2012-10-11 00:00:00
5:00 PM,69.6,34.2,27,29.89,-9999.0,West,5.8,-,N/A,,Unknown,270,2012-10-11 00:00:00
6:00 PM,64.0,35.1,34,29.91,-9999.0,West,2.3,-,N/A,,Unknown,270,2012-10-11 01:00:00
7:00 PM,59.7,34.7,39,29.93,-9999.0,NNE,1.2,-,N/A,,Unknown,20,2012-10-11 02:00:00
8:00 PM,56.3,35.2,45,29.94,-9999.0,Calm,Calm,-,N/A,,Unknown,0,2012-10-11 03:00:00
9:00 PM,50.4,34.2,54,29.96,-9999.0,Calm,Calm,-,N/A,,Unknown,0,2012-10-11 04:00:00
10:00 PM,48.9,35.4,60,29.97,-9999.0,Calm,Calm,-,N/A,,Unknown,0,2012-10-11 05:00:00
11:00 PM,43.5,32.0,64,29.99,-9999.0,Calm,Calm,-,N/A,,Unknown,0,2012-10-11 06:00:00